THOR ABLESTAR DEB, 672

Orbit data source: Space-Track

THOR ABLESTAR DEB, 672 is space debris in LEO originally from a launch on Sat, 28 Sep 1963 UTC launched from the Air Force Western Test Range (AFWTR). Debris objects in space refer to the collection of defunct objects orbiting the Earth. Examples of debris include non-operational satellites, rocket bodies, and fragments generated from explosions, collisions, or faulty payload assembly.

Loading next visibility...
Identifier
672, 1963-038D
Orbit
LEO
Country
Flag of USUS
Related business
Manufacturer
Unknown
Mission
Spacecraft
Bus & Motor
Unknown
Mass
Unknown
Launch date (UTC)
1963-09-28 (63 years ago)
Launch vehicle
Unknown
Launch site
Air Force Western Test Range (AFWTR)
Object type
Payload
Rocket body
Debris
Shape & HBR
Unknown shape, 0.1 m
Radar Cross Section
Medium (>0.1 m² and <1 m²)

Expand to show TLE details & history
Last TLE update: 22 hours ago

TLE from 22 hours ago
0 THOR ABLESTAR DEB
1 00672U 63038D   26167.42227412  .00000541  00000-0  61350-3 0  9999
2 00672  89.9857 335.9725 0028081  78.5840 341.8081 13.68972950101746
Epoch: 2026-06-16T10:08Z
TLE epoch observation values (Epoch: 2026-06-16T10:08:04.483Z)
Latitude
60.38179°
Longitude
-80.71569°
Altitude
993.945 km
Speed
7.37 km/s
True Right ascension
22h 23m 59s
True Declination
60° 14' 19"
Sunlit
Object was in daylight at epoch
Visualization orbit readout
Latitude
Unknown
Longitude
Unknown
Altitude
Unknown
Speed
Unknown
Apparent Right ascension
Unknown
Apparent Declination
Unknown
Sunlit
N/A
Visualization observer readout
Local Sidereal Time
18:24:56
Azimuth
Unknown
Elevation
Unknown
Doppler factor
Unknown
Orbital elements
Apogee altitude
1,021.002 km
Perigee altitude
979.563 km
Semi-major axis
7,378.42 km
Eccentricity
0.00281
Inclination
89.9857°
RAAN
335.9725°
Arg. of periapsis
78.584°
True anomaly
341.7073°
Mean anomaly
341.8081°
Eccentric anomaly
341.75773°
Mean motion
3.42451 °/min
Orbital period
105.12 mins
BSTAR
0.0006135
Loading maneuver chart data...
Computing Atmospheric mass density...

Documentation

Showing up to 5 results
|